Location: Gwatt
(46.7204°N, 7.6223°E)
Time: 19:55:18
(UTC+00:00)

Transit 2A - Pass Details

Date: 22 January 2021
Orbit: 600 x 958 km, 66.7° (Epoch: 26 February)

Event Time Altitude Azimuth Distance (km) Brightness Sun altitude
Rises 12:17:45 0° 326° (NW) 3,039 8.7 23.2°
Reaches altitude 10° 12:20:08 10° 327° (NNW) 2,075 7.9 23.1°
Maximum altitude 12:24:47 86° 55° (NE) 631 6.0 23.0°
Drops below altitude 10° 12:29:09 10° 146° (SE) 1,948 8.9 22.8°
Sets 12:31:20 0° 147° (SSE) 2,838 9.6 22.8°
